Theta_e
292 288 286 286 288 290 288 290 290 285 286 285 282 282 282 283 284 285 285 287 286 288 287 288 288 288 290 291 292 289 286 287 289 289 290 291 291 291 291 291 292 292 293 292 293 293 293 294 295 297 299 301 301 302 302 302 303 303 302 301 300 300 299 298 297 297 298 298 297 296 295 294 294 293 292 292 292 292 293 294 295 295 295 295 295 295
290 288 287 290 290 288 290 288 285 286 286 287 283 286 285 282 285 286 290 288 286 289 283 284 285 287 289 291 292 290 285 289 289 290 290 292 292 292 292 292 292 293 291 289 290 291 291 293 294 297 298 299 301 300 300 301 302 302 302 302 300 299 299 299 298 298 299 299 299 297 293 292 293 293 292 290 290 291 292 292 292 292 293 293 293 292
287 287 290 291 288 287 286 287 286 288 286 284 287 283 285 284 283 287 286 286 287 287 286 283 286 289 291 292 292 291 291 292 292 292 294 294 293 292 292 292 292 291 292 290 291 290 291 292 294 296 298 300 303 301 300 302 302 301 301 302 300 299 299 299 299 298 295 294 293 294 292 291 289 290 290 290 289 290 290 289 290 290 291 291 290 290
285 285 291 288 287 289 286 285 286 286 285 284 282 285 285 282 285 283 284 287 289 288 284 283 285 289 291 292 292 293 293 292 292 292 292 293 293 293 294 293 293 292 292 291 291 291 291 292 293 295 297 300 303 301 299 300 301 301 301 301 300 299 299 299 297 294 293 292 291 291 290 290 289 288 289 288 289 289 289 288 289 288 289 289 288 288
288 288 289 288 289 290 287 285 286 285 285 283 285 283 283 285 285 286 284 285 285 287 284 287 286 288 291 291 291 290 287 289 293 292 292 293 292 294 293 292 293 293 293 292 291 290 290 291 293 295 297 300 302 301 299 299 301 301 300 300 299 299 299 297 294 292 292 291 290 289 289 289 288 288 287 288 287 287 287 287 287 286 287 287 286 286
288 289 287 288 287 287 285 285 285 287 284 282 283 288 288 286 287 284 284 287 283 281 282 286 281 279 281 282 285 289 287 291 290 291 294 294 294 292 292 293 294 293 293 293 292 291 291 291 292 295 297 300 302 302 300 299 301 301 300 300 299 299 297 294 292 291 292 291 290 289 289 288 287 287 287 287 286 286 287 286 285 286 286 286 284 284
288 289 289 288 287 286 286 285 284 288 285 284 285 286 289 287 286 286 285 286 279 280 285 284 282 280 281 289 289 286 286 292 293 290 293 293 294 292 293 294 293 293 292 290 291 291 291 291 292 294 297 300 301 302 301 299 299 301 300 300 299 296 295 293 292 292 292 291 291 292 292 291 290 289 287 286 287 287 286 285 285 285 285 284 284 283
288 289 286 286 286 286 285 285 287 289 286 283 284 283 286 286 285 285 284 286 283 280 283 285 283 280 282 290 289 285 287 290 291 293 294 296 296 295 294 294 293 293 292 291 291 291 291 291 292 294 297 299 301 302 300 299 298 299 299 299 297 295 294 293 292 292 292 291 292 292 292 292 291 290 286 285 285 285 285 285 284 284 283 282 282 282
289 287 286 287 285 284 286 286 286 290 287 284 286 284 284 286 285 283 285 282 282 282 283 282 283 283 278 285 285 286 289 287 291 293 294 295 295 295 294 294 293 292 291 291 291 291 291 291 292 294 296 299 301 301 300 299 298 298 297 297 296 294 293 292 292 292 292 293 293 293 292 290 288 287 285 285 286 285 285 284 284 283 282 281 281 281
287 288 289 291 289 287 286 284 288 292 288 286 284 285 284 283 281 281 281 284 281 280 283 283 283 279 282 281 287 284 286 288 291 294 295 295 295 294 293 293 291 289 289 290 291 291 291 292 292 294 295 298 301 301 300 298 296 295 295 296 295 293 293 292 292 293 293 293 293 292 291 289 286 285 284 285 284 284 284 283 283 282 281 280 280 280
288 290 291 290 289 289 286 285 286 289 287 287 285 287 285 282 280 279 279 278 279 276 284 284 283 285 280 282 287 287 287 290 292 291 293 292 292 292 289 290 290 288 287 288 289 289 290 290 291 293 296 298 300 300 299 297 295 293 293 294 293 292 292 292 292 292 292 292 292 291 290 288 285 284 284 283 283 283 283 282 281 281 280 280 280 280
289 288 290 288 289 288 289 288 286 285 285 287 286 282 286 285 278 278 272 276 275 276 280 279 283 285 279 279 285 290 288 287 290 292 293 293 293 293 289 288 287 286 287 287 287 287 288 289 290 292 295 297 299 299 298 296 294 292 292 293 292 291 291 291 292 292 291 291 291 291 290 288 286 285 284 283 282 283 282 282 281 280 280 280 280 280
285 287 285 288 290 291 286 288 286 286 289 286 285 287 281 274 272 272 271 274 273 277 278 277 281 281 283 288 286 288 289 291 291 292 294 294 294 293 288 288 287 286 285 287 287 288 288 289 290 292 294 296 298 298 298 296 294 293 292 292 292 290 290 291 291 291 290 289 289 290 288 287 286 286 285 284 283 283 283 282 280 280 280 279 280 280
283 282 285 287 289 289 292 288 284 284 287 286 288 283 278 273 272 270 268 262 269 275 278 279 280 280 281 285 291 293 295 295 293 293 293 293 294 294 292 290 286 285 286 287 288 288 289 290 290 292 294 295 297 298 298 296 294 293 292 292 292 290 290 290 290 289 288 289 289 289 288 287 287 286 286 285 284 283 283 282 281 280 280 280 280 280
276 280 284 289 287 290 293 294 292 287 287 289 285 289 284 277 272 269 265 273 275 274 276 277 277 276 278 284 287 291 293 290 291 293 294 293 292 290 288 288 287 284 284 286 287 288 289 290 290 291 293 295 296 297 297 296 294 293 292 291 292 291 289 289 289 289 288 288 288 288 287 287 287 286 286 285 285 283 282 281 281 280 280 281 280 281
283 283 280 289 288 292 292 291 290 287 287 285 284 285 280 284 278 278 272 269 269 271 272 272 280 280 284 285 287 286 286 287 287 288 290 293 295 289 287 288 288 288 287 286 287 288 288 289 290 291 292 294 295 296 296 295 294 293 293 292 292 291 289 288 289 289 288 288 287 287 286 287 287 286 286 285 284 284 283 282 281 281 280 280 280 280
281 278 283 287 288 291 291 289 290 289 284 284 286 284 286 283 285 275 273 273 272 270 278 273 280 282 283 289 294 294 289 291 290 288 288 291 292 287 289 290 287 287 286 286 287 288 288 287 289 290 291 293 294 295 295 295 294 293 292 292 292 291 289 288 289 289 288 288 286 286 286 286 285 285 284 284 283 282 281 281 281 280 280 279 280 280
282 279 285 285 287 287 286 287 286 286 287 285 281 285 285 284 284 282 277 271 270 273 276 274 280 279 279 282 282 287 288 291 291 291 292 291 289 289 292 292 290 287 287 287 286 286 287 288 289 290 291 292 293 294 295 295 294 293 292 291 291 291 288 288 288 288 287 286 285 285 285 285 285 285 284 284 283 281 280 280 279 280 279 279 280 280
287 282 282 283 284 287 285 289 289 287 288 286 282 286 287 281 279 279 274 273 269 269 273 275 276 277 282 284 284 287 286 290 291 291 289 291 292 292 292 293 289 284 285 285 286 286 286 287 289 289 290 291 292 293 293 294 293 293 292 290 290 290 289 288 287 286 286 285 286 286 285 284 284 284 283 282 281 280 280 280 279 279 279 279 279 280
288 281 281 285 285 286 287 287 284 284 288 287 288 287 285 284 278 277 280 274 276 271 267 277 273 282 283 284 287 292 290 289 290 287 288 291 291 291 291 291 288 284 285 286 286 286 287 287 288 289 289 290 291 291 292 291 291 291 291 290 290 289 288 286 286 285 285 285 285 285 284 284 284 283 283 282 280 280 280 280 280 279 279 279 279 279
286 284 278 282 285 285 284 286 286 287 286 284 285 283 286 281 283 280 279 277 277 267 266 270 277 281 281 287 288 292 292 290 289 290 291 290 290 290 290 289 288 285 285 286 286 286 286 286 287 287 288 288 288 289 289 290 290 290 290 290 290 289 287 286 286 285 286 285 285 284 283 283 283 282 282 281 280 280 280 279 279 279 279 279 279 279
284 282 281 282 281 282 285 285 287 290 292 289 289 286 289 284 280 277 279 280 272 276 276 268 279 286 285 285 292 291 291 291 290 292 291 289 289 289 288 287 286 286 285 286 286 286 286 285 286 285 286 286 287 288 288 289 289 289 289 290 290 289 288 287 286 286 286 285 284 284 283 283 282 282 281 280 279 279 279 279 279 279 278 279 279 279
291 284 283 280 283 286 285 286 284 284 288 286 286 287 290 289 287 280 277 275 274 279 273 274 270 285 288 287 288 289 287 287 286 287 290 290 289 288 288 287 285 285 286 286 286 286 286 286 286 286 287 287 288 288 288 288 288 289 289 289 289 289 289 288 287 286 286 284 284 283 283 282 282 281 280 280 279 279 278 278 278 278 278 279 278 278
294 288 285 285 284 282 284 284 283 284 287 287 285 282 284 287 285 283 280 281 283 275 276 274 273 285 286 284 282 283 283 282 282 283 289 289 289 289 288 287 285 284 284 284 284 284 285 285 285 285 286 286 287 287 288 288 288 288 288 288 288 288 288 287 287 286 285 284 284 283 282 282 281 280 279 279 279 278 278 278 278 278 278 278 278 278
289 286 288 284 281 283 282 285 284 286 286 281 282 283 286 287 286 282 281 278 278 280 283 280 277 285 289 283 283 284 285 285 285 286 284 287 290 290 288 286 284 284 283 283 283 284 283 284 284 286 286 287 287 287 288 288 288 287 288 287 288 288 288 287 287 285 285 284 283 283 282 281 281 280 279 279 278 278 278 278 277 278 277 277 277 278
291 290 288 282 280 278 278 278 281 282 283 283 280 283 286 288 286 284 284 279 281 284 282 282 283 289 286 286 288 285 285 287 286 285 284 285 289 290 288 287 285 283 283 282 283 283 284 285 285 285 286 286 287 287 287 288 287 287 287 287 287 287 287 287 286 286 284 284 283 282 282 281 280 280 279 279 278 278 278 277 277 278 278 278 278 278
287 289 291 288 286 284 286 286 285 286 282 283 284 285 285 287 288 289 287 285 282 286 280 285 287 289 287 286 287 288 284 287 291 288 289 289 289 287 287 287 286 285 284 283 284 284 283 284 284 285 285 286 286 287 287 287 287 287 287 286 286 286 286 286 286 285 285 284 283 283 282 281 280 280 279 279 278 278 278 278 278 279 279 279 279 278
286 288 290 290 290 290 291 290 286 290 286 288 287 285 287 286 287 287 286 284 289 282 282 287 288 287 290 290 287 287 287 286 286 286 286 287 287 289 290 286 288 284 283 282 283 283 284 285 285 285 285 285 286 286 287 287 287 287 286 286 285 285 286 286 285 285 285 284 283 283 282 282 281 280 279 279 279 279 279 279 279 279 279 279 279 278
287 287 290 290 289 290 291 290 286 288 288 288 288 287 285 286 286 285 287 289 288 285 284 290 288 287 290 292 291 292 291 291 290 290 292 292 288 286 285 286 286 286 285 283 285 285 285 285 285 285 284 285 285 285 286 286 286 286 286 286 285 285 285 285 284 285 285 284 283 283 283 282 281 281 280 280 279 279 279 279 279 279 279 279 279 279
290 288 290 290 288 290 290 290 286 287 285 285 287 287 288 287 286 287 288 290 289 288 290 291 289 288 292 294 292 295 294 294 294 291 289 291 292 292 291 291 290 290 289 288 287 286 286 286 285 285 284 284 285 285 285 286 286 286 286 286 285 285 285 284 284 284 284 284 284 284 283 282 282 281 281 280 280 279 279 279 279 279 279 279 279 279
292 288 293 288 287 288 290 290 286 286 285 285 285 286 288 288 288 288 289 289 289 288 290 290 289 289 295 293 290 291 290 290 290 290 293 294 291 291 292 292 291 291 290 289 288 287 287 286 285 285 284 285 285 285 285 286 286 286 286 286 285 285 284 284 284 284 284 284 284 284 283 282 282 281 281 280 280 280 279 279 279 279 279 279 279 278
290 286 287 287 286 286 289 289 285 284 285 285 285 285 285 286 285 286 286 289 287 287 288 288 287 288 293 293 295 290 290 291 292 293 293 294 292 290 289 290 290 291 291 291 290 289 287 286 285 285 285 285 285 285 285 285 285 285 285 285 284 284 284 284 284 284 284 284 284 284 283 282 282 281 281 281 280 280 280 279 279 279 279 278 278 278
288 288 287 287 285 285 289 287 284 284 284 283 284 287 288 288 288 288 289 290 290 291 287 286 287 293 296 293 292 291 290 294 293 293 293 292 291 289 290 291 291 292 292 291 291 290 290 289 288 287 286 285 285 285 285 285 285 285 285 285 284 283 282 283 283 283 284 284 283 283 283 282 282 281 281 281 280 280 279 279 278 278 278 278 278 278
288 289 288 288 284 286 287 284 285 284 279 281 293 296 293 289 288 286 287 288 290 291 290 293 294 296 295 294 292 294 292 293 295 295 292 294 291 290 289 290 291 290 289 289 290 291 291 289 287 286 286 286 286 285 285 285 285 285 284 284 283 282 282 282 283 283 283 283 283 283 283 282 282 282 281 281 281 280 279 279 278 278 278 278 278 277
288 288 288 289 285 285 286 285 282 278 281 292 290 292 295 294 292 291 291 292 292 292 293 292 293 294 295 295 295 295 295 294 293 290 288 285 288 292 294 292 288 289 290 290 289 289 289 288 285 285 284 284 284 284 284 283 284 283 283 283 282 282 282 282 283 283 283 282 283 282 282 282 282 281 281 281 280 279 279 278 278 278 278 278 278 277
288 288 289 286 287 286 283 284 278 280 287 288 289 287 285 291 293 291 289 291 292 292 292 292 293 295 296 296 296 293 291 290 287 285 286 287 289 292 290 289 290 289 289 290 290 290 288 286 286 285 285 284 284 283 284 283 283 283 283 282 282 282 282 282 282 282 282 282 282 281 282 282 282 281 281 281 280 279 279 278 278 278 278 278 278 277
291 290 289 285 288 282 284 284 284 288 287 289 288 288 289 288 287 288 286 289 293 294 293 293 294 295 295 295 295 295 289 288 289 293 285 290 292 288 290 292 292 290 288 286 285 286 285 284 284 284 283 283 283 283 283 283 283 283 282 281 281 281 281 282 281 281 281 281 281 280 281 281 281 281 280 280 279 279 278 278 278 278 278 277 277 277
293 288 289 286 284 287 284 283 283 282 280 286 291 286 291 292 293 294 291 289 293 293 294 293 293 294 293 294 294 291 287 289 290 293 288 289 285 286 285 285 283 283 283 284 283 282 283 282 281 282 283 282 282 282 282 283 283 282 281 281 281 281 281 281 281 281 281 282 282 281 280 280 281 281 281 280 279 279 279 279 279 278 278 277 277 277
290 292 289 287 285 284 283 281 282 280 284 291 288 288 291 292 292 291 289 286 292 290 292 292 292 293 293 293 291 288 287 286 289 291 288 284 281 281 282 283 281 281 282 282 282 282 281 281 282 282 282 282 281 281 282 282 282 281 280 280 280 280 280 280 281 281 281 281 281 281 281 281 281 281 280 279 280 279 279 278 278 278 278 278 278 278
288 288 287 284 283 285 284 282 281 286 285 286 284 283 288 288 292 291 280 282 290 288 291 292 293 293 293 293 287 288 289 287 289 291 284 281 281 281 282 283 283 282 282 281 282 281 281 281 281 281 281 281 280 280 281 281 281 280 280 279 280 280 280 280 281 280 281 281 281 280 280 281 281 280 280 280 280 279 279 279 279 278 278 278 278 278
285 286 286 282 284 284 285 283 285 285 287 286 284 283 285 292 293 284 280 288 289 288 288 292 293 294 292 288 288 288 289 291 287 282 279 281 281 281 280 280 280 280 281 281 282 283 281 281 281 281 280 280 280 281 281 282 281 280 280 280 280 280 280 281 281 281 281 282 282 281 281 281 281 281 281 281 280 280 280 280 279 279 278 278 278 277
285 286 286 286 284 283 284 283 283 287 288 288 283 287 289 291 283 283 289 282 287 284 284 287 290 289 287 288 288 291 285 278 277 279 280 279 280 280 280 281 281 282 281 281 281 282 281 281 281 280 279 279 280 281 281 282 281 280 280 279 279 279 280 281 282 282 281 281 281 281 281 281 282 282 282 281 281 280 279 280 280 279 278 278 277 276
285 284 282 283 285 286 285 283 282 279 288 289 287 286 286 288 288 288 283 283 283 284 283 282 286 285 285 286 285 285 278 280 280 280 279 280 280 281 280 280 281 281 281 282 281 280 282 281 280 279 279 279 279 281 281 281 280 279 279 279 279 281 282 282 283 283 282 282 282 282 282 282 282 282 282 281 281 280 280 279 278 278 277 277 276 275
289 285 284 286 288 283 283 280 282 288 287 289 292 287 289 289 288 287 288 287 282 281 283 283 282 282 283 286 284 280 278 278 278 278 279 278 278 278 278 278 279 279 279 279 279 280 280 280 279 279 278 278 279 279 281 281 280 280 279 279 280 282 282 283 283 283 283 282 282 282 282 282 281 282 281 281 281 280 279 278 277 277 276 276 275 274
289 288 289 286 289 287 285 287 288 284 288 291 290 291 294 292 285 286 286 289 286 283 282 284 286 281 282 283 282 281 278 279 280 280 281 280 279 279 279 279 279 280 280 280 279 279 280 280 279 279 278 278 278 279 279 280 281 280 280 280 280 281 281 282 282 282 282 282 281 281 281 281 280 280 280 280 280 279 279 277 276 275 275 274 274 274
286 287 285 287 286 286 285 286 285 283 285 289 285 283 283 287 283 283 284 286 285 286 284 286 284 282 281 280 281 277 280 279 279 278 278 278 278 277 276 276 276 276 276 277 277 278 279 278 278 278 277 275 275 277 277 277 279 281 281 280 281 281 281 281 281 281 281 281 280 280 280 280 279 279 279 279 279 279 279 277 275 275 274 273 273 272
286 285 287 286 286 288 284 286 285 286 287 288 289 285 283 283 284 282 282 284 285 282 283 280 284 283 281 279 283 282 278 279 280 279 278 277 277 277 277 277 276 276 277 277 277 277 278 278 278 276 275 273 271 273 273 272 271 272 275 276 278 279 279 280 280 279 279 279 278 277 278 278 277 276 275 274 274 274 274 274 274 274 273 272 271 271
285 286 286 286 285 287 287 287 287 286 285 287 288 286 284 284 282 281 281 280 281 282 282 281 281 280 278 279 280 280 278 279 280 278 278 278 278 277 277 276 275 274 273 273 274 275 276 277 276 275 274 273 271 272 271 270 268 268 269 270 271 272 274 275 275 275 274 273 273 273 273 274 272 273 272 271 273 273 272 271 272 273 273 272 272 272
286 288 282 285 287 286 285 284 282 284 285 284 283 284 284 284 282 280 279 279 280 281 280 280 281 280 280 281 279 279 278 278 279 279 279 278 277 277 277 276 275 275 274 275 272 274 276 275 274 273 272 271 270 269 268 266 266 265 266 266 265 270 273 272 271 271 271 271 272 271 271 271 271 272 273 271 271 269 271 273 272 273 272 271 272 273
286 284 284 285 282 284 286 289 284 284 284 288 286 285 284 283 281 279 279 279 281 281 280 280 278 278 278 278 280 280 280 278 277 278 278 278 278 277 275 275 274 273 272 271 273 273 273 273 273 272 271 269 268 267 266 265 264 264 265 264 264 268 272 271 270 269 269 270 270 269 269 269 268 268 269 270 269 270 268 272 277 274 272 269 274 277
288 287 286 285 285 285 290 289 288 289 286 286 289 286 284 282 280 280 280 281 281 282 282 281 278 277 277 277 278 280 280 279 278 278 278 278 277 276 276 275 275 274 273 273 273 272 272 272 271 270 269 268 266 265 264 263 263 263 263 265 266 269 271 271 271 270 268 269 268 268 268 266 266 265 266 265 266 265 267 266 267 277 278 278 277 277
Wind_Speed
0 3 4 7 9 10 6 10 5 4 5 6 4 3 2 2 5 4 4 4 1 0 7 9 8 9 12 11 11 4 3 5 9 11 12 11 10 10 11 12 13 11 17 2 7 7 8 9 8 7 7 7 6 6 6 7 7 7 7 7 7 6 5 7 5 5 7 7 6 5 4 7 4 3 3 5 5 7 5 6 4 4 6 5 6 7
3 1 8 12 7 6 6 3 6 5 3 1 2 1 3 2 7 4 0 2 2 4 3 1 2 11 15 13 12 3 2 9 12 13 14 15 12 11 12 14 14 15 3 3 4 5 6 7 8 7 7 7 10 7 6 8 8 7 7 8 7 7 6 6 5 8 6 3 5 7 4 6 5 4 4 5 3 6 6 5 5 4 5 5 6 6
1 7 12 6 3 3 3 5 3 4 3 2 2 2 1 7 5 9 3 2 2 2 9 4 6 12 13 13 10 9 11 10 10 13 15 12 11 11 12 14 13 7 11 5 7 6 8 8 9 9 8 8 10 8 8 8 9 9 8 7 8 7 8 7 6 4 5 4 4 5 5 5 5 3 3 3 3 4 6 5 5 4 5 5 6 6
1 6 15 3 5 5 3 3 4 3 2 3 2 1 7 3 1 6 1 2 0 3 2 1 5 11 14 11 13 14 12 9 9 10 12 10 12 14 15 11 11 12 12 12 12 11 8 9 9 8 9 10 9 8 8 9 10 8 8 8 8 8 7 7 5 6 7 7 8 8 7 6 3 5 4 5 5 6 7 7 6 5 4 4 6 5
10 2 2 4 6 6 4 2 5 5 5 2 5 4 2 3 6 7 5 2 1 1 2 3 7 9 10 12 8 5 3 5 12 9 11 13 11 14 9 7 11 15 13 13 8 8 9 11 13 13 10 8 11 11 11 10 10 8 10 9 9 9 8 6 7 7 6 8 8 6 9 8 8 6 4 6 5 4 3 4 5 3 3 4 5 5
10 6 3 4 1 3 5 3 5 8 4 3 6 10 9 6 7 3 3 4 7 4 2 1 4 5 5 6 9 9 6 8 5 6 13 14 10 8 11 16 13 11 9 11 12 13 13 13 9 9 11 13 12 13 11 9 9 9 9 9 9 8 7 8 8 8 8 6 8 9 8 7 5 6 5 8 9 7 6 5 2 4 3 4 4 4
6 1 3 4 5 4 3 4 4 6 6 0 6 8 11 7 2 1 0 3 3 3 1 1 4 9 4 11 7 6 6 12 8 6 12 10 11 7 11 11 11 11 9 6 5 8 11 12 11 12 12 14 14 12 8 8 8 9 9 10 10 9 8 8 10 10 8 8 7 10 12 12 12 10 2 2 4 5 5 3 5 4 3 3 5 4
2 0 4 4 4 4 4 4 5 10 6 4 2 3 3 3 5 5 3 5 6 2 4 0 2 4 9 16 1 3 5 9 10 13 14 14 12 10 10 10 9 9 8 8 9 10 11 12 16 18 17 13 13 9 9 9 8 10 11 11 10 8 9 9 10 10 9 10 9 7 5 5 8 11 11 8 7 5 2 5 6 4 3 3 3 4
6 4 4 5 2 3 7 6 4 9 8 3 1 3 4 5 4 3 4 3 0 3 10 1 1 1 6 10 6 1 7 5 12 12 13 13 12 10 9 10 9 7 8 9 10 11 13 14 14 11 11 9 9 9 10 10 9 8 9 10 10 10 10 9 11 11 10 8 8 8 8 7 3 4 7 7 6 6 4 6 6 5 3 3 3 3
1 3 7 7 6 7 4 1 7 12 4 1 5 7 7 7 6 4 4 3 1 1 14 6 4 2 10 4 7 2 2 10 11 14 14 11 10 9 7 6 5 5 5 6 9 8 9 9 9 8 6 8 10 9 9 8 7 8 9 11 12 11 10 11 12 10 10 9 8 7 8 10 8 7 7 5 6 6 5 8 7 5 5 5 4 3
1 4 3 3 7 4 5 2 1 0 2 7 3 7 5 8 4 3 6 3 2 3 18 4 9 7 9 3 8 8 8 7 8 7 7 7 7 8 5 6 5 4 4 5 5 5 6 6 7 8 11 11 10 9 10 10 10 9 10 11 12 11 9 11 12 11 11 9 8 8 10 12 13 10 11 9 4 4 6 8 7 6 6 4 5 5
1 2 1 2 3 3 4 4 4 2 3 4 2 3 4 2 6 2 4 4 2 10 3 2 7 9 9 7 10 10 5 4 7 8 9 8 9 8 4 4 4 4 4 3 4 4 5 5 6 7 10 11 12 11 12 11 10 10 10 10 12 9 10 11 11 11 11 10 10 8 10 11 13 14 11 13 13 10 10 8 8 5 5 5 4 4
4 6 2 4 4 8 3 7 3 3 0 3 5 6 5 4 5 3 2 2 5 9 0 2 4 2 14 12 6 9 11 11 10 10 10 10 11 8 4 5 3 2 3 4 5 5 6 9 11 12 11 11 13 13 13 12 11 10 9 11 12 11 10 11 11 12 11 10 10 10 10 9 10 12 14 13 12 12 11 9 8 8 8 6 7 6
7 2 2 3 2 4 8 8 2 1 4 5 8 6 5 0 0 6 5 1 6 7 3 1 1 6 2 9 16 22 22 14 9 10 10 11 13 10 7 5 4 3 4 5 6 7 8 10 10 11 12 13 12 12 12 12 11 10 10 11 12 12 11 10 11 11 11 11 10 10 10 10 10 10 11 11 12 11 10 10 10 9 9 9 8 8
5 7 9 8 5 6 10 13 13 7 10 10 3 10 9 8 7 5 4 5 7 5 3 4 1 7 5 4 1 10 11 8 8 10 10 9 10 6 6 6 6 5 4 5 6 8 10 10 10 11 11 11 11 12 12 11 11 11 11 12 13 12 12 12 13 11 11 10 10 8 8 8 9 10 9 9 10 12 10 9 10 8 7 8 8 8
14 9 5 7 1 10 14 3 7 6 3 2 2 6 4 12 6 5 4 3 1 3 5 2 7 5 7 3 7 5 8 8 8 9 6 13 14 1 5 7 7 6 6 6 7 7 8 7 8 8 9 10 10 12 12 13 12 13 13 12 13 13 12 12 11 11 11 10 9 9 10 9 9 8 8 7 7 8 10 12 11 10 8 6 7 5
2 6 1 3 4 8 5 3 3 5 8 5 6 8 6 2 4 3 2 2 1 3 11 3 9 6 8 8 11 10 6 11 7 5 5 12 10 4 9 8 6 5 5 6 9 8 6 5 6 8 9 9 10 11 14 14 13 14 13 13 13 12 10 12 12 12 11 10 9 10 10 9 9 9 10 10 10 10 7 7 8 9 7 6 6 6
9 6 1 2 5 1 0 0 3 4 4 9 5 8 2 2 4 4 6 2 4 4 8 2 9 4 1 11 3 2 7 14 11 10 11 9 7 8 10 9 6 5 7 7 5 4 5 6 8 8 8 10 11 12 12 13 12 12 12 13 14 12 14 12 12 12 11 10 10 10 11 10 10 10 10 9 11 9 8 7 6 6 7 7 7 6
4 7 1 1 0 3 2 1 2 2 2 6 5 4 6 4 3 2 4 4 2 5 8 6 3 7 9 10 1 3 6 11 12 10 6 9 11 9 9 11 2 1 2 4 6 5 6 8 9 10 10 8 8 9 9 9 10 10 9 10 12 14 14 13 11 9 8 9 9 9 11 11 10 8 8 7 8 8 9 10 8 8 8 7 6 7
1 4 3 1 3 1 1 5 9 5 1 1 3 3 1 2 2 5 7 3 5 6 1 10 3 13 7 8 11 13 12 10 8 3 6 12 9 7 8 6 3 2 4 5 6 6 7 8 8 9 10 11 11 10 9 9 8 10 10 10 11 9 8 9 11 10 11 10 8 8 8 9 9 10 10 9 9 9 8 9 9 9 8 9 7 6
3 3 7 1 3 2 3 5 11 13 11 3 3 4 1 0 2 4 1 4 4 5 3 2 11 10 6 8 9 13 11 11 9 8 8 7 7 9 7 5 4 3 4 6 6 6 7 6 6 6 6 7 6 6 6 8 11 11 10 11 12 13 12 13 12 10 10 10 10 10 11 10 9 9 7 8 8 9 8 7 7 8 8 7 7 8
3 3 9 2 1 5 9 4 5 11 17 16 17 14 17 11 5 4 9 3 1 2 5 2 13 16 6 3 11 10 10 7 10 10 7 6 8 7 5 5 4 4 5 6 6 6 6 6 6 5 4 5 7 8 10 9 9 10 10 10 11 11 11 11 11 10 10 9 9 11 10 10 9 10 9 9 8 9 8 7 8 7 8 8 7 7
8 3 5 7 10 11 2 0 1 2 1 2 4 9 9 9 7 6 8 4 2 4 3 4 4 24 3 6 6 5 4 3 4 3 7 8 7 6 4 3 4 5 5 6 6 6 7 7 7 8 9 9 10 10 10 9 10 11 11 10 10 12 12 11 11 10 9 10 10 10 10 10 10 9 10 11 9 9 8 7 6 6 9 8 7 6
5 2 2 5 1 2 2 2 2 1 1 2 4 1 5 10 7 7 3 7 9 2 3 1 0 17 2 0 2 2 3 3 4 5 8 6 6 6 6 2 4 4 5 4 3 3 5 5 6 7 9 10 10 11 12 11 10 9 9 10 10 12 11 11 10 10 9 9 10 10 10 11 9 11 10 11 9 9 7 7 6 6 7 7 7 8
5 3 8 7 2 2 2 1 2 1 1 2 2 4 5 4 5 2 5 1 2 9 10 10 10 18 0 1 1 1 0 4 4 6 4 7 7 6 5 4 4 4 2 2 3 4 4 5 9 11 11 11 11 10 10 11 12 11 11 10 11 10 10 11 10 11 10 10 11 10 11 11 10 11 11 10 9 10 8 8 7 6 7 8 7 7
8 8 11 10 12 13 11 12 14 11 9 3 2 5 7 11 11 5 8 3 8 8 10 8 11 14 1 4 3 1 3 4 5 5 5 6 8 8 5 5 5 2 2 4 4 4 8 10 8 8 10 10 10 11 11 11 11 11 11 11 9 10 9 10 10 11 12 11 12 11 12 12 11 12 12 11 10 10 9 8 8 8 7 8 9 8
2 3 12 14 15 16 16 7 1 11 4 7 10 11 9 10 11 11 5 6 14 14 7 13 17 21 7 1 4 5 3 6 7 4 5 6 8 8 7 8 4 4 4 6 7 7 5 6 11 11 10 10 10 10 10 11 11 11 11 10 9 9 9 10 11 11 12 12 12 12 12 12 12 10 10 10 9 8 9 9 9 9 9 8 9 9
2 3 9 14 18 19 17 16 8 13 13 16 16 12 14 12 13 15 14 17 16 1 13 14 17 14 24 10 6 6 7 7 7 6 6 6 8 8 7 4 4 3 3 2 4 7 11 11 9 10 10 9 10 9 10 9 11 11 12 12 11 10 10 9 10 11 12 12 12 12 13 12 10 10 10 9 8 9 9 9 9 9 8 8 9 10
5 8 9 6 12 14 16 12 8 7 11 15 18 17 17 17 14 18 21 24 12 12 19 20 9 15 23 16 10 13 10 10 8 8 10 7 4 4 3 5 5 5 5 6 9 9 9 10 10 9 9 10 9 11 12 10 10 10 10 10 10 10 11 10 11 12 12 12 13 13 11 9 9 8 9 10 9 10 10 9 9 8 8 8 8 8
4 9 8 10 12 14 16 15 6 10 4 3 12 16 18 19 20 23 24 23 20 14 16 19 12 15 18 17 11 15 9 10 8 5 3 3 8 7 6 7 7 8 8 9 10 10 9 10 8 8 9 10 13 12 12 12 12 12 13 12 11 11 10 10 11 11 12 13 12 10 10 10 9 10 10 10 11 10 10 9 9 9 9 9 8 8
6 9 14 6 8 14 20 16 6 10 6 7 7 10 16 19 23 25 23 20 17 16 18 21 20 19 22 8 5 4 6 3 2 5 10 10 7 7 8 8 8 9 10 9 8 10 9 8 9 8 10 13 14 14 13 13 11 9 9 9 9 9 8 8 9 10 10 11 9 9 10 10 10 10 10 10 10 8 10 10 9 9 9 8 9 9
7 3 1 4 10 14 17 14 9 6 8 9 7 11 15 20 20 16 15 12 11 17 19 17 17 20 18 10 7 5 5 7 10 11 11 10 8 7 7 9 9 11 11 10 10 8 7 9 10 11 13 12 11 12 12 10 9 9 12 9 9 8 7 8 9 10 9 8 8 9 10 10 11 11 11 10 10 10 9 9 9 9 9 9 9 8
6 5 6 5 11 13 14 5 8 7 4 8 14 22 26 18 10 9 15 17 20 19 14 15 22 22 19 5 6 6 6 10 12 9 10 11 7 5 9 11 12 12 11 9 9 9 10 11 11 11 10 8 11 12 12 10 10 13 11 10 8 8 9 9 8 8 8 7 8 9 9 10 11 11 10 10 10 9 10 10 10 9 9 10 8 7
7 10 9 5 9 9 9 5 5 5 14 16 21 19 12 16 14 13 15 20 18 13 14 18 20 21 17 12 10 14 11 13 15 11 7 7 5 6 8 10 10 7 6 7 8 10 10 7 6 7 9 10 9 10 9 10 10 6 6 8 8 10 9 10 8 8 8 7 8 9 9 9 8 9 8 8 8 8 9 9 10 8 6 6 6 8
11 11 11 7 4 10 3 7 6 16 15 16 2 2 11 15 18 24 24 20 18 19 19 19 19 20 18 13 14 14 11 11 9 6 3 4 6 8 11 8 5 7 9 8 9 9 10 8 6 6 6 7 7 7 7 7 6 7 8 8 9 9 10 9 9 9 9 9 8 8 8 9 10 10 10 10 9 9 9 9 8 8 8 8 8 9
10 12 9 6 7 1 4 9 11 13 4 4 5 3 3 6 13 13 13 15 14 15 18 22 26 25 22 20 15 9 8 7 5 5 6 7 9 10 7 7 7 8 9 10 10 9 6 6 8 8 7 5 7 8 9 9 9 10 9 9 10 9 9 9 9 9 8 9 8 9 9 10 9 9 8 8 8 8 8 8 9 10 7 6 5 3
12 9 9 9 8 11 8 13 17 4 10 6 5 6 9 8 7 12 13 18 22 21 21 22 24 23 21 18 16 13 3 4 8 12 6 10 11 6 8 10 8 8 6 5 3 6 5 5 5 5 5 6 7 9 8 9 9 10 10 10 9 10 9 9 10 10 9 9 9 9 10 10 10 10 9 9 10 9 9 9 8 7 7 8 7 6
10 13 8 12 8 13 14 12 8 8 14 18 17 1 6 7 12 14 12 13 13 18 19 19 20 22 20 18 19 7 3 6 13 15 4 9 3 5 4 4 4 4 4 5 3 2 2 2 3 4 7 7 6 6 7 8 9 9 9 9 8 9 9 9 10 8 9 9 9 9 8 8 8 9 8 9 10 10 7 5 4 6 6 8 7 7
10 10 8 13 7 9 12 13 12 12 15 15 5 8 11 10 14 7 6 15 13 11 14 16 19 20 20 19 12 6 2 8 14 10 4 1 1 1 2 2 2 2 3 2 3 3 3 3 5 6 6 8 8 6 7 9 10 9 8 7 7 7 7 7 7 8 9 8 7 7 8 8 8 9 9 9 8 8 8 8 7 6 5 5 5 6
15 11 7 10 9 7 9 12 12 6 9 4 5 3 7 7 11 11 8 13 9 11 14 15 20 23 20 14 5 7 9 10 14 7 1 0 0 1 1 1 1 2 2 3 3 1 3 4 7 6 7 7 7 7 9 8 9 8 8 7 7 7 8 8 7 5 5 6 7 7 7 7 8 8 9 9 8 7 8 6 7 7 7 6 5 5
11 9 10 16 13 14 14 9 4 6 4 4 4 4 8 11 12 11 17 12 5 8 9 17 19 18 12 7 9 9 13 10 2 2 1 1 2 3 3 2 1 1 2 3 3 4 5 4 5 6 6 6 8 8 8 9 10 9 8 8 8 8 6 6 6 7 7 8 8 8 9 8 9 10 8 8 9 8 7 7 7 7 7 7 5 5
9 10 9 11 15 13 13 14 13 7 6 8 2 12 10 11 8 18 6 1 6 5 7 6 11 8 6 11 10 11 3 1 4 1 4 3 3 2 1 2 3 4 3 3 4 5 6 6 7 7 6 6 8 8 8 9 9 8 7 7 7 5 5 7 7 8 8 8 8 8 9 9 8 8 9 8 8 8 7 6 7 7 7 6 6 7
10 8 8 10 7 8 8 12 8 14 7 15 13 2 4 9 7 5 1 1 0 3 7 7 8 6 7 8 7 5 4 3 4 4 4 4 5 5 4 4 5 5 5 5 5 4 7 7 7 7 6 5 5 6 6 8 8 6 6 6 5 5 6 7 7 8 8 8 8 8 9 8 10 8 7 8 8 9 8 6 7 6 6 7 6 7
8 10 5 8 9 11 13 13 10 6 3 11 20 13 10 9 4 7 9 5 3 5 7 6 6 6 7 6 8 4 3 5 2 4 4 3 4 3 3 4 4 4 5 4 4 5 8 9 7 8 6 5 5 5 5 8 8 6 6 5 4 6 6 6 6 7 7 7 7 7 7 8 8 7 6 8 7 7 7 6 6 6 6 7 7 7
9 14 8 12 8 12 7 5 1 4 8 13 3 4 11 11 4 9 6 8 9 7 4 4 7 5 6 7 5 8 5 4 5 6 7 5 4 4 4 4 4 5 6 7 6 5 6 10 10 9 8 6 6 5 5 5 9 6 7 4 6 6 7 7 7 7 7 6 6 6 5 5 6 6 6 6 7 7 7 7 7 7 6 7 7 7
3 2 3 3 4 2 2 5 1 2 2 6 3 2 4 2 3 2 6 6 6 6 10 9 7 7 7 6 9 4 5 7 8 5 4 5 4 3 3 3 4 4 4 5 6 6 8 9 9 10 10 8 6 6 5 5 5 8 4 4 5 6 7 7 7 6 6 5 5 6 6 7 5 5 6 6 6 7 6 7 7 7 6 6 6 5
5 1 2 3 1 3 6 3 5 6 5 8 10 4 4 3 7 4 3 2 2 6 6 2 6 8 9 8 8 9 6 7 8 5 5 5 6 5 5 5 4 4 5 7 6 8 8 9 11 10 9 8 5 7 7 7 7 5 3 4 4 5 6 6 6 6 5 5 5 4 5 6 5 4 4 4 3 4 4 5 6 6 6 6 6 6
5 5 5 4 3 10 7 6 5 4 5 10 11 10 8 8 6 5 4 2 2 3 3 3 4 5 6 7 5 8 8 7 10 9 7 6 7 7 6 6 6 5 3 4 5 5 7 9 11 10 10 9 6 7 8 8 7 5 5 4 4 5 6 6 6 6 5 6 5 5 5 5 7 7 5 4 5 6 4 5 6 7 7 8 8 7
3 8 6 7 9 1 4 3 5 3 4 8 9 7 4 5 7 4 3 3 5 7 5 4 2 6 9 7 6 8 10 7 6 9 9 7 6 6 7 6 5 6 6 7 4 5 9 10 11 10 11 9 5 7 8 7 5 5 6 4 3 6 8 8 6 7 6 5 6 5 5 6 6 6 6 5 5 4 5 7 6 6 4 2 5 6
6 7 2 5 6 7 13 13 9 5 7 10 12 13 8 2 2 3 3 3 5 7 7 8 3 3 3 4 7 9 11 9 6 6 8 8 8 8 7 7 7 8 7 5 8 9 10 9 12 11 11 7 5 6 7 6 5 4 4 4 3 5 9 8 8 7 6 5 6 5 6 6 5 5 6 6 6 5 2 2 3 3 4 2 2 7
12 9 8 8 10 13 11 5 5 4 2 3 8 8 8 9 8 8 9 9 7 5 8 11 9 4 3 3 4 7 9 11 10 7 7 6 6 5 6 8 9 8 8 7 11 9 11 9 10 11 10 7 5 7 6 7 6 6 6 5 4 5 7 7 8 6 6 6 5 4 5 5 5 4 5 4 5 4 4 1 3 4 2 4 5 5
Wind_Direction
233 130 184 208 214 206 203 196 193 146 136 101 92 112 194 206 280 280 270 258 249 348 234 231 242 255 268 265 271 260 181 239 259 263 256 250 244 239 241 240 239 237 242 185 193 183 187 188 187 185 184 181 173 186 179 178 176 171 164 155 153 152 142 141 147 135 144 127 104 70 77 104 90 57 49 40 40 64 68 73 84 100 107 110 113 106
59 158 248 227 221 189 206 133 102 96 55 137 108 158 278 154 253 233 207 17 311 168 296 338 289 267 263 270 267 268 135 243 236 244 251 251 241 239 238 243 238 240 287 179 193 200 182 188 189 185 187 181 181 194 178 183 180 173 170 168 155 153 160 160 169 152 148 132 140 143 142 124 122 129 119 96 351 79 78 45 62 55 83 99 101 107
109 203 242 228 128 121 78 140 128 148 125 58 185 176 325 269 246 278 273 318 280 113 261 329 288 271 270 267 268 251 237 243 234 226 242 242 249 243 241 243 247 245 241 209 219 189 196 190 191 190 189 194 187 180 186 185 178 179 175 174 160 163 163 162 154 153 129 109 90 113 122 120 110 52 50 59 53 34 79 59 32 45 64 91 98 105
319 279 253 152 134 115 55 98 116 85 75 133 100 114 228 235 35 298 310 4 33 176 265 30 325 283 280 262 254 249 238 248 251 250 255 243 248 248 241 234 237 237 238 224 210 203 192 194 193 192 194 192 178 180 189 190 185 178 179 173 166 166 163 152 126 105 70 79 85 72 83 83 72 128 112 89 82 71 64 58 42 22 59 70 103 109
199 212 334 141 149 155 150 112 128 148 229 267 178 193 214 209 231 188 251 300 293 337 58 292 294 288 264 277 284 285 310 285 265 270 266 257 235 249 267 266 227 234 227 228 206 200 189 194 200 197 189 178 185 193 194 189 186 179 178 172 167 165 165 143 127 120 120 109 90 91 92 93 96 80 93 95 69 53 53 83 61 30 29 82 102 107
276 259 103 79 94 112 112 148 199 154 232 297 230 198 213 215 231 278 349 8 4 341 342 102 333 287 291 278 254 279 330 296 261 246 260 259 252 241 245 245 246 240 231 220 209 199 196 198 193 197 191 191 193 197 196 187 182 174 174 169 167 159 153 146 133 137 142 142 140 139 130 131 124 129 154 153 155 158 151 129 124 64 45 97 101 105
213 10 135 167 148 165 155 179 232 155 193 58 271 200 214 215 193 137 212 73 304 261 298 39 185 281 327 297 271 268 264 261 276 249 263 268 266 243 241 245 243 236 234 228 212 189 191 199 193 198 198 197 195 198 176 179 184 177 173 170 164 158 153 152 151 154 151 149 167 165 162 160 160 154 176 91 98 116 102 106 96 75 81 87 116 114
120 225 84 73 107 137 156 211 239 170 132 238 252 150 162 152 190 216 152 178 239 264 280 89 141 245 314 283 328 267 284 276 285 276 271 267 262 254 246 250 245 237 227 212 212 202 200 194 194 197 199 194 195 177 168 180 181 181 177 168 164 156 155 160 158 164 169 166 173 168 152 158 160 164 159 155 131 99 114 115 101 101 98 82 93 120
155 188 172 170 134 144 197 208 187 158 148 220 245 136 140 169 180 126 148 169 311 25 280 99 223 283 236 268 305 269 286 281 265 266 265 262 265 264 261 254 251 236 220 205 206 203 198 198 201 199 194 193 177 174 178 183 181 176 171 167 162 163 161 164 167 167 174 176 172 165 150 142 87 102 123 125 121 121 152 115 110 109 112 96 79 93
327 171 212 171 150 210 216 260 168 163 195 214 124 89 83 78 67 111 95 115 349 33 267 208 164 218 267 258 286 334 235 269 260 260 262 263 262 266 265 271 264 244 221 216 216 204 202 199 196 191 178 177 186 179 176 170 168 171 172 173 169 172 170 166 170 172 172 172 165 159 163 146 134 132 117 118 127 130 156 129 124 131 135 131 116 105
221 287 188 156 197 199 125 40 160 201 110 132 92 73 28 41 43 34 66 92 67 280 259 204 181 171 281 222 216 247 229 205 245 270 271 276 280 270 259 263 272 264 231 219 212 201 195 185 176 170 183 184 179 175 173 173 176 174 178 177 177 176 168 168 170 171 174 172 173 170 168 157 148 151 141 132 112 114 130 152 152 152 152 147 143 134
14 22 157 246 96 106 98 77 22 92 123 118 99 122 61 347 12 36 342 44 142 264 285 320 189 175 208 284 264 244 266 235 213 248 267 281 269 266 268 265 260 243 225 208 185 184 163 156 173 178 187 183 182 176 179 179 177 178 182 178 177 174 172 172 171 173 176 175 177 178 172 167 161 155 156 155 158 168 165 164 157 150 140 150 150 143
266 223 231 320 208 137 116 85 9 34 11 81 90 84 117 251 35 309 21 256 200 230 275 13 102 357 235 242 261 279 260 252 230 228 245 251 267 267 253 267 268 236 189 186 193 179 181 182 181 187 188 182 186 188 183 182 181 179 179 181 177 180 176 176 174 178 178 177 179 175 175 174 166 164 161 160 162 168 165 164 157 161 164 161 158 172
271 276 271 235 81 232 144 149 166 92 210 134 158 149 102 183 180 253 262 268 311 290 270 243 239 254 273 275 232 242 247 238 242 243 242 248 252 260 274 280 272 227 204 203 196 196 196 192 193 191 187 189 188 185 184 181 181 180 182 185 185 181 177 175 179 182 179 183 180 176 174 171 169 169 167 164 163 172 169 164 166 171 169 170 171 165
246 304 241 135 243 174 182 202 182 156 163 201 102 161 182 146 167 212 194 216 228 227 285 284 57 231 134 245 232 234 260 284 265 258 257 260 256 251 260 272 278 262 237 213 207 206 202 201 192 191 191 190 188 184 183 182 184 182 186 186 188 179 182 180 182 181 185 182 178 175 173 172 178 167 171 173 169 166 166 166 162 168 166 171 172 172
210 232 269 213 318 152 189 208 107 95 77 200 165 65 103 229 116 244 211 169 263 334 338 227 213 191 185 263 284 230 268 283 258 266 278 272 268 244 283 259 250 242 234 218 224 221 216 203 193 190 194 192 188 186 186 186 185 187 190 188 191 185 181 183 182 185 183 185 177 173 173 179 180 169 167 166 168 173 172 165 167 168 172 171 154 150
51 271 291 354 54 179 181 110 177 145 198 208 104 205 213 151 136 72 36 49 79 59 253 142 285 280 300 298 260 261 256 267 278 284 279 262 272 311 274 272 243 227 224 224 224 221 209 198 200 197 193 192 191 190 192 190 189 190 185 187 189 185 180 183 185 184 184 182 176 177 175 173 175 172 172 172 173 170 167 167 165 162 162 148 152 150
156 237 303 101 213 317 94 163 103 29 144 102 201 228 136 132 104 141 222 349 72 204 269 107 241 295 25 282 329 323 273 266 261 255 251 263 281 285 275 274 260 213 220 227 237 232 206 201 198 198 200 199 197 195 193 192 189 191 190 187 187 183 182 186 185 185 183 179 179 177 178 177 179 175 176 173 171 165 159 162 156 142 146 166 161 157
140 266 312 335 126 301 1 122 37 354 21 148 195 197 122 234 240 290 92 260 250 263 273 286 266 258 196 246 316 250 218 245 253 247 256 270 264 257 269 272 309 213 230 239 231 218 206 200 200 197 198 198 200 200 200 192 187 189 191 190 191 188 187 184 182 180 179 180 182 180 179 175 175 177 173 170 164 162 167 167 165 165 157 141 151 153
53 178 285 342 147 295 31 122 199 194 2 70 79 115 115 104 190 132 199 179 128 261 48 286 37 269 178 219 197 230 214 223 236 256 234 235 242 243 246 264 296 220 215 229 229 220 213 209 201 196 193 192 193 194 194 192 188 192 191 188 191 185 178 178 182 179 181 180 177 180 174 179 178 173 171 167 164 170 177 173 165 161 156 164 155 157
213 155 249 322 323 102 178 205 211 164 164 167 138 202 178 0 234 110 33 146 177 179 181 292 308 265 241 205 188 214 214 212 199 208 232 237 240 236 236 242 251 222 218 224 222 215 211 211 203 200 200 193 188 192 187 190 195 194 189 193 190 185 182 186 185 180 182 172 181 176 180 175 171 171 165 159 167 172 175 171 169 168 157 142 163 155
204 172 212 130 30 219 232 241 213 186 185 177 179 193 189 145 160 168 248 61 108 110 241 156 262 276 243 172 201 211 224 190 215 204 236 259 241 238 227 225 213 216 226 222 216 203 204 199 193 191 186 184 182 190 192 195 193 195 197 196 190 189 189 184 183 184 176 178 177 180 178 177 173 168 165 167 170 177 175 170 171 161 146 164 160 159
180 151 113 195 206 208 200 17 275 252 279 200 181 229 190 197 174 166 204 239 30 245 109 180 91 271 221 192 204 193 250 185 249 209 235 241 250 256 241 212 242 218 218 224 207 200 199 191 186 185 185 191 196 197 194 194 196 197 197 193 194 191 192 182 183 180 176 176 178 181 179 173 174 169 172 171 174 177 170 168 164 161 161 162 157 153
61 152 190 271 342 311 309 310 48 72 131 293 269 148 143 197 184 174 168 179 173 161 167 236 106 263 6 22 263 203 230 254 260 221 233 276 277 278 274 235 231 228 233 229 225 208 204 183 173 176 190 193 199 198 197 199 198 196 199 197 191 198 186 178 179 177 176 179 181 177 173 180 175 173 175 177 175 171 165 164 164 160 158 154 148 153
165 237 201 216 310 326 337 346 326 2 19 218 189 203 198 174 162 165 94 75 183 210 193 153 222 257 328 308 306 308 323 281 258 266 220 243 270 270 277 264 242 226 204 213 195 201 198 188 190 197 193 195 200 199 197 200 198 196 199 195 196 196 185 180 176 175 178 178 177 177 181 182 177 179 179 177 169 171 163 163 159 161 160 152 153 150
188 163 183 207 218 226 229 211 219 211 196 225 238 202 202 174 179 122 216 178 218 231 174 209 243 253 11 322 325 326 328 300 263 241 258 220 259 272 281 284 262 213 193 199 198 192 209 208 212 208 198 197 200 198 199 202 200 201 200 199 194 190 183 182 176 180 175 178 180 181 185 183 181 185 181 174 172 170 163 160 163 164 162 163 156 150
197 220 197 199 209 228 236 248 41 113 95 187 223 186 196 200 192 198 186 191 213 228 174 224 225 253 249 269 239 256 269 234 227 234 242 241 245 258 264 261 264 237 209 202 203 210 216 222 219 215 206 201 199 198 200 200 200 200 199 197 193 191 185 182 179 180 180 178 182 182 189 186 185 180 177 176 169 159 161 165 166 167 167 164 159 157
76 244 233 223 216 225 236 239 205 157 176 205 202 199 195 189 189 188 199 218 215 114 252 230 229 246 258 223 228 241 244 249 260 256 266 263 253 237 241 271 253 250 250 226 222 213 216 222 221 218 211 202 202 199 203 203 201 198 197 197 191 187 185 182 181 181 183 181 184 188 189 186 177 176 176 168 161 164 165 165 166 169 162 159 163 166
168 228 234 232 250 248 245 249 166 209 190 193 202 192 190 194 186 194 215 227 202 203 229 244 192 223 250 246 196 220 204 211 216 224 224 227 250 263 253 253 266 264 247 224 236 227 223 223 221 216 210 207 197 202 202 200 201 198 200 200 193 187 191 178 178 185 186 185 188 190 183 172 172 171 165 166 163 163 166 166 166 165 165 170 169 171
149 234 233 222 240 248 255 250 167 204 235 235 205 196 193 186 196 203 216 222 219 221 239 253 246 230 245 253 192 221 203 218 227 248 312 280 245 255 268 268 265 264 258 247 244 236 229 230 224 214 204 203 203 202 201 201 201 199 197 199 192 190 187 170 185 185 189 192 189 178 170 169 169 171 168 165 168 170 164 164 167 169 170 176 176 167
181 221 215 214 239 248 247 248 180 213 204 222 237 215 198 199 203 206 213 224 224 239 242 248 255 261 257 230 197 219 210 225 307 269 241 244 250 247 251 259 260 259 258 253 251 244 234 229 224 212 207 210 204 202 201 204 200 196 202 200 192 191 184 174 181 191 192 193 184 173 164 167 170 167 171 170 167 163 164 168 168 173 176 177 174 167
168 267 54 147 227 244 246 238 206 205 223 234 232 222 222 210 209 210 216 215 205 219 230 244 255 254 253 114 212 184 201 212 226 230 239 249 234 223 235 247 249 249 249 248 249 248 238 228 220 214 216 211 204 201 201 198 189 188 202 187 185 181 165 178 185 188 191 187 177 172 167 167 166 168 171 170 172 169 167 163 169 177 180 178 172 168
173 181 198 191 229 236 251 165 177 179 188 240 238 229 216 211 207 202 218 214 211 207 216 222 236 242 254 213 240 230 175 233 238 235 236 239 241 215 220 228 234 241 241 244 249 250 243 234 225 220 218 205 203 201 201 186 182 198 190 178 175 152 166 177 179 181 184 180 175 174 169 168 170 172 172 175 170 168 166 168 173 178 180 185 175 156
170 190 213 176 234 238 237 141 142 156 222 225 233 234 206 204 193 205 219 220 222 199 217 222 236 246 246 243 228 246 216 224 236 235 217 228 232 240 246 233 236 239 249 248 242 245 253 247 233 220 213 208 203 198 188 183 188 178 154 154 149 159 165 170 176 177 178 172 178 173 171 168 165 167 167 165 166 165 170 169 177 175 172 163 161 173
188 193 215 187 223 234 189 118 193 220 228 235 340 128 196 201 199 209 224 222 219 218 229 243 250 254 252 244 235 236 239 241 252 258 243 222 195 226 245 257 232 232 236 239 249 247 243 239 227 218 208 204 188 171 155 161 149 138 144 150 154 161 162 172 172 178 174 172 172 167 165 167 170 170 168 168 167 167 168 169 164 168 175 176 183 181
191 197 197 212 206 248 148 187 231 230 242 349 278 262 298 216 207 208 245 250 237 223 216 232 238 243 245 246 247 236 228 252 294 249 214 231 218 227 236 251 254 239 240 233 234 249 246 227 217 209 206 169 152 158 161 160 151 148 156 154 156 159 163 166 172 175 170 171 169 167 166 166 170 169 166 162 158 163 170 172 175 171 162 160 168 165
193 200 195 225 183 221 205 214 233 329 327 274 261 234 164 156 149 172 220 240 227 219 213 222 235 241 247 251 249 248 251 343 295 275 187 226 240 221 215 236 242 259 265 277 241 255 244 227 210 192 150 152 155 152 157 149 146 144 144 151 157 158 162 166 173 178 173 170 167 168 169 169 166 164 158 159 159 166 170 168 175 168 155 163 167 170
197 203 189 212 211 208 217 233 235 235 242 248 233 85 167 177 169 185 193 251 242 221 216 212 227 237 240 245 246 237 76 293 283 276 223 230 281 264 278 284 305 271 256 259 279 274 229 176 137 139 141 138 140 141 137 140 139 138 143 150 152 156 162 171 180 175 169 172 172 166 163 165 163 159 154 158 173 177 174 163 148 157 157 165 167 178
206 214 197 210 203 186 214 226 221 221 232 238 228 172 183 180 166 134 179 243 248 191 206 196 221 233 231 232 239 100 140 246 256 252 172 175 328 40 281 311 330 309 306 273 218 179 149 135 129 127 115 122 125 129 129 131 131 133 142 146 148 150 158 175 174 171 177 172 158 155 155 155 153 156 164 169 168 161 161 165 167 158 155 166 171 182
202 208 189 213 216 220 217 223 224 209 235 251 211 214 176 136 115 121 191 244 239 148 191 183 210 226 230 227 146 155 177 232 246 260 203 179 143 41 42 343 19 5 14 13 16 48 112 116 104 98 112 120 127 127 126 126 126 130 137 141 144 159 176 181 172 151 138 141 145 144 146 149 155 159 163 169 162 161 165 156 149 160 167 173 177 179
208 214 207 213 213 218 217 243 287 277 271 238 222 182 141 148 137 164 211 230 177 187 176 187 205 218 216 186 160 189 214 216 216 125 182 149 82 38 27 43 46 51 59 51 63 80 82 68 91 110 120 123 127 128 129 131 130 140 147 149 158 180 172 151 141 145 150 146 149 154 158 161 165 164 165 161 161 158 156 160 166 162 170 179 182 186
213 214 217 215 222 221 220 227 232 257 225 177 243 160 164 117 200 211 218 335 151 169 215 190 204 209 166 182 184 207 187 139 182 144 102 99 121 133 96 103 96 77 60 81 90 98 92 91 93 94 91 114 129 134 137 136 137 139 141 150 170 167 141 144 147 147 151 154 156 159 159 161 161 159 159 154 149 157 168 176 172 176 181 179 182 194
181 195 202 215 224 237 226 236 227 236 230 159 122 75 298 190 225 150 137 11 132 214 156 211 203 204 161 193 203 172 118 96 116 138 132 137 138 141 139 127 121 122 117 106 88 86 110 101 98 97 108 113 116 127 130 127 125 126 135 152 164 151 146 147 149 150 152 152 153 160 162 162 162 158 155 158 163 168 176 171 172 175 175 178 185 196
165 211 190 225 187 222 209 221 219 246 78 146 144 182 202 205 187 146 132 194 232 187 198 174 224 193 193 173 175 170 149 127 105 131 131 118 129 129 118 112 109 109 96 83 102 114 106 103 99 95 86 90 95 104 114 118 120 131 139 153 145 135 133 138 142 141 145 153 157 156 161 163 164 160 160 165 165 170 168 166 174 175 181 182 186 195
181 211 185 217 184 209 220 229 342 277 176 185 156 173 195 189 154 177 173 165 169 233 196 187 197 188 183 166 154 158 148 203 169 170 148 167 144 142 135 135 131 130 127 121 118 114 107 117 114 105 87 78 90 95 105 123 130 136 141 153 138 141 141 142 143 148 155 158 158 158 152 147 154 162 165 163 162 167 173 172 167 178 187 180 192 197
319 229 100 93 263 213 194 158 142 21 287 250 320 33 338 286 316 165 169 159 229 185 173 182 181 171 169 163 138 189 184 164 151 157 125 134 137 116 103 97 88 89 102 106 105 107 114 108 100 100 96 66 56 69 65 65 110 133 142 132 141 139 141 141 141 147 149 144 146 149 146 151 157 163 166 163 172 177 176 170 174 178 171 179 194 196
240 138 180 210 263 225 254 173 166 200 205 216 223 249 256 210 199 203 253 275 208 162 184 239 167 166 166 163 171 164 159 161 149 151 146 140 150 153 146 139 136 134 138 129 131 123 114 112 102 97 93 82 44 65 63 69 52 57 72 89 104 121 128 132 131 128 126 131 126 124 140 143 146 134 121 132 126 130 138 139 158 163 166 178 186 194
275 171 185 207 169 210 233 214 234 224 193 211 205 206 217 211 201 192 190 207 148 145 143 163 120 119 136 170 175 148 156 162 155 159 160 164 157 155 152 145 139 105 69 91 112 108 104 104 108 105 99 90 73 71 71 65 54 40 49 46 71 106 101 104 112 117 114 108 109 108 114 120 122 129 131 136 146 143 139 150 158 174 184 185 188 190
150 121 211 183 210 252 346 319 260 273 245 232 227 242 228 195 192 190 155 133 139 135 125 123 136 162 171 173 150 143 144 178 168 162 154 154 148 149 156 146 130 123 122 107 90 105 113 115 103 105 101 96 85 82 78 71 59 41 43 33 54 111 106 106 102 102 106 113 109 112 112 122 133 140 141 139 139 152 164 169 173 186 207 208 177 193
107 197 181 166 228 211 216 217 153 168 236 225 217 209 204 196 125 131 112 135 154 148 151 138 93 101 125 153 158 156 153 160 165 157 157 159 162 152 145 134 126 114 99 94 100 100 98 102 114 113 104 99 94 88 85 73 57 43 32 31 39 108 112 116 108 102 103 111 114 123 119 112 116 124 131 142 146 132 64 40 139 165 173 225 206 200
197 187 160 200 202 228 240 281 199 238 330 243 191 163 167 179 173 171 187 186 188 168 158 141 129 121 131 148 152 157 154 155 165 152 142 146 144 141 137 133 125 115 111 116 104 99 103 109 110 107 100 101 96 84 79 68 41 33 19 22 31 93 111 107 96 90 90 92 95 108 113 113 103 97 101 109 120 117 138 120 355 37 88 174 191 203